Roseburg, OR

5:15 PM PST on November 22, 2019 (GMT -0800)
Roseburg Regional

Weather History for KRBG - September, 2019

Change the Weather History Date:

Wednesday, September 18, 2019

  Actual Average Record
Temperature  
Mean Temperature 58 °F 64 °F  
Max Temperature 62 °F 78 °F 91 °F (1952)
Min Temperature 54 °F 51 °F 34 °F (1965)
Degree Days  
Heating Degree Days 7 2  
Month to date heating degree days 21 24  
Since 1 July heating degree days 26 45  
Cooling Degree Days 0 2  
Month to date cooling degree days 70 52  
Year to date cooling degree days 673 463  
Growing Degree Days 8 (Base 50)    
Moisture  
Dew Point 54 °F    
Average Humidity 86    
Maximum Humidity 100    
Minimum Humidity 72    
Precipitation  
Precipitation 0.27 in 0.03 in 1.05 in (1966)
Month to date precipitation 2.05 0.47  
Year to date precipitation 24.82 20.12  
Sea Level Pressure  
Sea Level Pressure 29.87 in    
Wind  
Wind Speed 2 mph (SSE)    
Max Wind Speed 9 mph    
Max Gust Speed 11 mph    
Visibility 8 miles    
Events Rain    
T = Trace of Precipitation, MM = Missing Value Source: NWS Daily Summary

Daily Weather History Graph

Daily Weather History Graph

Search for Another Location

Airport or City:

Astronomy

Sep. 18, 2019 Rise Set
Actual Time 6:56 AM PDT 7:18 PM PDT
Civil Twilight 6:27 AM PDT 7:46 PM PDT
Nautical Twilight 5:53 AM PDT 8:20 PM PDT
Astronomical Twilight 5:19 AM PDT 8:54 PM PDT
Moon 9:48 PM PDT (9/18) 11:11 AM PDT (9/18)
Length of Visible Light 13h 19m
Length of Day
12h 22m
Waning Gibbous, 82% of the Moon is Illuminated
Sep 18
Waning Gibbous
Sep 21
Last Quarter
Sep 28
New
Oct 5
First Quarter
Oct 13
Full

Hourly Weather History & Observations

Time (PDT) Temp. Dew Point Humidity Pressure Visibility Wind Dir Wind Speed Gust Speed Precip Events Conditions
12:53 AM 57.9 °F 55.0 °F 90% 29.84 in 10.0 mi South 3.5 mph - N/A   Overcast
1:53 AM 57.0 °F 55.0 °F 93% 29.83 in 9.0 mi South 3.5 mph - 0.01 in Rain Light Rain
2:53 AM 57.9 °F 55.0 °F 90% 29.83 in 10.0 mi SSE 5.8 mph - 0.02 in   Mostly Cloudy
3:53 AM 55.9 °F 54.0 °F 93% 29.82 in 10.0 mi Calm Calm - N/A   Scattered Clouds
4:53 AM 55.9 °F 54.0 °F 93% 29.82 in 10.0 mi Calm Calm - N/A   Mostly Cloudy
5:11 AM 55.0 °F 54.0 °F 96% 29.82 in 10.0 mi Calm Calm - N/A   Mostly Cloudy
5:18 AM 55.0 °F 54.0 °F 96% 29.82 in 10.0 mi SSE 3.5 mph - N/A   Scattered Clouds
5:53 AM 55.0 °F 53.1 °F 93% 29.82 in 10.0 mi Calm Calm - N/A   Partly Cloudy
6:10 AM 54.0 °F 53.1 °F 97% 29.82 in 10.0 mi Calm Calm - N/A   Mostly Cloudy
6:24 AM 54.0 °F 53.1 °F 97% 29.82 in 2.5 mi Calm Calm - N/A   Mostly Cloudy
6:31 AM 54.0 °F 53.1 °F 97% 29.82 in 0.8 mi South 3.5 mph - N/A   Overcast
6:34 AM 54.0 °F 53.1 °F 97% 29.82 in 1.0 mi SSE 4.6 mph - N/A   Overcast
6:40 AM 54.0 °F 53.1 °F 97% 29.82 in 3.0 mi SE 4.6 mph - 0.00 in Rain Light Rain
6:47 AM 53.6 °F 53.6 °F 100% 29.82 in 1.8 mi ESE 3.5 mph - 0.01 in Rain Light Rain
6:53 AM 54.0 °F 54.0 °F 100% 29.82 in 2.0 mi Calm Calm - 0.01 in   Overcast
6:56 AM 54.0 °F 54.0 °F 100% 29.82 in 4.0 mi NNW 3.5 mph - N/A   Overcast
7:53 AM 55.9 °F 54.0 °F 93% 29.84 in 10.0 mi North 3.5 mph - 0.02 in   Overcast
8:49 AM 57.2 °F 55.4 °F 94% 29.85 in 2.5 mi SE 3.5 mph - 0.05 in Rain Light Rain
8:53 AM 57.0 °F 55.0 °F 93% 29.85 in 5.0 mi Calm Calm - 0.05 in Rain Light Rain
9:01 AM 57.0 °F 55.0 °F 93% 29.84 in 8.0 mi Calm Calm - 0.00 in Rain Light Rain
9:53 AM 57.9 °F 55.0 °F 90% 29.85 in 5.0 mi Calm Calm - 0.02 in Rain Light Rain
10:23 AM 57.9 °F 55.0 °F 90% 29.86 in 2.5 mi Calm Calm - 0.04 in Rain Rain
10:31 AM 57.9 °F 55.0 °F 90% 29.86 in 3.0 mi SSE 3.5 mph - 0.05 in Rain Light Rain
10:53 AM 57.9 °F 55.9 °F 93% 29.86 in 5.0 mi SE 4.6 mph - 0.08 in Rain Light Rain
11:53 AM 60.1 °F 54.0 °F 80% 29.86 in 10.0 mi ESE 5.8 mph - 0.01 in Rain Light Rain
12:53 PM 60.1 °F 53.1 °F 78% 29.86 in 8.0 mi SE 3.5 mph - 0.02 in Rain Light Rain
1:53 PM 61.0 °F 54.0 °F 78% 29.87 in 10.0 mi Calm Calm - 0.01 in   Overcast
2:13 PM 61.0 °F 54.0 °F 78% 29.88 in 10.0 mi Calm Calm - N/A   Overcast
2:53 PM 61.0 °F 55.0 °F 81% 29.88 in 10.0 mi South 4.6 mph - N/A   Mostly Cloudy
3:53 PM 60.1 °F 53.1 °F 78% 29.89 in 10.0 mi Calm Calm - N/A   Overcast
4:53 PM 62.1 °F 54.0 °F 75% 29.90 in 10.0 mi Variable 3.5 mph - N/A   Overcast
5:53 PM 61.0 °F 54.0 °F 78% 29.92 in 10.0 mi SSE 4.6 mph - N/A   Overcast
6:53 PM 60.1 °F 54.0 °F 80% 29.94 in 10.0 mi Calm Calm - 0.00 in   Mostly Cloudy
7:53 PM 57.9 °F 54.0 °F 87% 29.95 in 10.0 mi Calm Calm - N/A   Mostly Cloudy
8:53 PM 57.9 °F 55.0 °F 90% 29.97 in 10.0 mi Calm Calm - 0.00 in Rain Light Rain
9:53 PM 57.0 °F 55.9 °F 96% 29.98 in 10.0 mi Calm Calm - 0.00 in   Overcast
10:00 PM 57.9 °F 55.9 °F 93% 29.98 in 10.0 mi Calm Calm - N/A   Overcast
10:25 PM 57.9 °F 55.9 °F 93% 29.98 in 3.0 mi Calm Calm - 0.01 in Rain Light Rain
10:53 PM 57.0 °F 55.9 °F 96% 29.99 in 10.0 mi Calm Calm - 0.01 in   Overcast
11:08 PM 57.9 °F 55.0 °F 90% 29.99 in 10.0 mi Calm Calm - N/A   Overcast
11:53 PM 57.9 °F 55.0 °F 90% 29.99 in 10.0 mi Calm Calm - 0.00 in   Overcast